星链-34306 (STARLINK-34306)

导读

STARLINK-34306是美国SpaceX公司星链星座的成员卫星,于2025年6月4日成功发射,运行在近地轨道,属于星链全球卫星互联网组网部署的一部分。星链项目计划构建由数万颗低轨卫星组成的通信网络,该卫星将助力为偏远及基础设施缺失区域提供高速低延迟的宽带互联网服务,同时扩充星链星座覆盖能力,不过该项目的持续扩张也引发了关于太空轨道拥堵与天文观测影响的争议。

Basic Information
目录编号:
64259
目录名称:
STARLINK-34306
国际标识:
2025-120D
轨道中心:
EARTH
卫星名称:
星链-34306
卫星全名:
星链-34306 (STARLINK-34306)
卫星状态:
在轨 (已飞行457 天)
发射日期:
2025-06-04 UTC
国别 :
美国 (US)
星等 :
--
Orbit Information
数据来源 国际轨道数据
星历时间: 2026-09-04T04:53:52+0800
14小时前
查看轨道信息
半长轴: 6840.839km
偏心率: 0.0001233
轨道倾角: 53.160°
近地点辐角 76.438°
升交点赤经 3.582°
平近点角 283.676°
近地点: 461.858km
远地点: 463.546km
周期: 93.848分钟
每日圈数: 15.344005
Detailed Information
固有亮度:
5
最大亮度:
2.5
卫星平台:
Starlink V1.0
覆盖范围:
全球
运营商:
太空探索技术公司
运营商所在国:
美国
制造商(研发单位):
太空探索技术公司
制造商所在国:
美国
使用方式:
暂无
Satellite Introduction
Starlink 计划是 SpaceX 推出的全球卫星互联网项目,通过发射低轨道卫星,为全球尤其是偏远地区提供高速、低延迟的互联网服务。自 2019 年起,Starlink 已部署数千颗卫星,旨在缩小全球数字鸿沟,推动互联网普及。该项目还为军事、航空等行业提供通信支持,带来广泛经济效益。
2D Orbit Map
3D Orbit Map
Orbit Altitude Analysis Chart
Orbit Inclination Analysis Chart
Orbit Comprehensive Analysis Chart
View Comprehensive Chart
Conjunction Data List
Event ID Objects TCA Miss Dist (km) Collision Risk Probability Collision Risk Index (CRI) Action
CDM_260903-012805-382606-425922
2026-09-03T
01:28:21+0000
2.774 km
极远距离
1.29437E-6 低风险 0.37
CDM_260906-034405-687406-425921
2026-09-06T
03:44:04+0000
2.656 km
极远距离
3.513864E-7 极低风险 0.26